sat.trackr.live / text

‹ back to catalog

STARLINK-2482

NORAD 48139 · 2021-027AZ

PAYLOAD ACTIVE UNKNOWN

§ Identity

Operator
Country
US
Launch date
2021-04-07
Launch site
AFETR
Launch vehicle
Mass (kg)
RCS (m²)

Purposes: comms

External: N2YO · Heavens-Above · Gunter

§ Orbital elements

Epoch: 2026-09-19T16:57:13.834368Z

Period
94.01 min
Inclination
53.1605°
Eccentricity
0.0001218
Mean motion
15.31704053 rev/d
Perigee alt
469.9 km
Apogee alt
471.6 km
Semi-major
6,848.9 km
B*
5.2823e-5
RAAN
329.8152°
Arg perigee
84.3828°
Mean anomaly
275.7312°
Rev number
30,241

§ Raw data

STARLINK-24821 48139U 21027AZ  26262.70641012  .00001275  00000+0  52823-4 0  99942 48139  53.1605 329.8152 0001218  84.3828 275.7312 15.31704053302418

JSON: /api/v1/satellites/48139 · /tle

For live sub-satellite position, see the globe view (requires WebGL).

§ Visibility from observer

Set your observer location to see the next 7 days of passes ≥ 10°. The values pass through the URL so the page stays shareable.

No JS? Fill the form by hand. The geolocation button needs JavaScript.